Location: Roswell
(33.3943°N, 104.5230°W)
Time: 00:49:58
(UTC+00:00)

Transit 4A - Visible Passes

Search period start: 14 January 2026 00:00
Search period end: 24 January 2026 00:00
Orbit: 867 x 974 km, 66.8° (Epoch: 13 January)

Date Brightness Start Highest point End Pass type
(mag) Time Alt. Az. Time Alt. Az. Time Alt. Az.
17 Jan 9.7 01:43:50 10° NNE 01:45:14 13° NNE 01:45:14 13° NNE visible
17 Jan 10.3 03:28:16 10° NNW 03:28:45 12° NNW 03:28:45 12° NNW visible
18 Jan 9.3 01:51:45 10° N 01:54:38 20° NNE 01:54:38 20° NNE visible
18 Jan 10.2 03:37:10 10° NW 03:38:10 15° NW 03:38:10 15° NW visible
19 Jan 8.8 02:00:01 10° N 02:04:16 31° NNE 02:04:16 31° NNE visible
19 Jan 10.2 03:46:17 10° NW 03:47:49 17° NW 03:47:49 17° NW visible
20 Jan 8.1 02:08:27 10° NNW 02:14:15 50° NE 02:14:15 50° NE visible
20 Jan 10.3 03:55:43 10° WNW 03:57:50 17° WNW 03:57:50 17° WNW visible
21 Jan 7.8 02:17:04 10° NNW 02:23:17 75° ENE 02:24:48 53° SE visible
21 Jan 10.5 04:05:52 10° WNW 04:08:28 14° W 04:08:28 14° W visible
22 Jan 9.3 00:41:07 10° N 00:45:09 18° NE 00:49:14 10° E visible
22 Jan 8.1 02:25:50 10° NNW 02:32:01 73° WSW 02:36:38 19° SSE visible
23 Jan 8.9 00:49:08 10° N 00:54:12 26° NE 00:59:19 10° ESE visible
23 Jan 8.8 02:34:45 10° NW 02:40:42 48° WSW 02:46:44 10° S visible
